Theta_e
347 345 350 351 350 348 348 344 340 338 331 323 319 320 323 323 324 330 333 334 335 333 331 331 332 333 334 335 335 335 334 330 325 323 324 326 329 333 334 335 337 339 340 339 340 341 341 342 342 342 343 342 341 341 340 340 339 339 339 339 339 337 335 332 330 329 330 332 334 334 334 334 333 332 331 331 330 330 329 329 328 328 327 328 327
343 343 348 350 349 349 348 344 341 337 331 323 320 321 323 322 324 331 333 334 335 333 332 333 334 334 335 334 334 333 331 328 325 323 326 331 334 337 335 334 333 335 337 339 340 340 342 342 342 342 341 340 340 339 339 339 339 339 339 338 337 334 332 330 328 327 328 330 332 331 330 331 331 330 329 329 328 327 327 326 326 326 326 326 325
341 345 349 349 350 350 348 344 341 337 331 324 321 322 323 322 326 332 333 335 335 334 334 335 335 335 333 331 330 330 331 334 334 333 335 339 341 341 340 339 335 333 335 337 338 340 341 342 342 342 340 339 339 339 339 338 338 339 338 338 337 334 333 331 329 328 328 330 330 328 328 329 329 328 328 328 327 327 327 326 326 325 325 327 327
342 346 348 349 350 349 348 345 341 337 331 325 322 323 323 323 328 333 333 335 336 335 336 337 335 333 330 329 329 330 335 338 340 340 341 341 342 341 342 341 339 337 334 334 335 338 340 341 341 341 340 339 338 338 338 337 337 338 337 338 337 336 334 332 329 327 326 328 326 326 329 329 329 328 327 326 327 328 328 328 328 325 325 328 328
342 346 347 349 349 349 348 346 342 337 332 325 323 323 323 324 330 333 334 336 336 336 337 336 331 328 328 330 333 333 336 339 340 341 342 341 342 342 341 341 340 338 336 334 335 337 339 340 340 341 340 339 338 337 337 337 336 336 336 336 336 336 335 332 328 324 326 327 326 328 329 329 328 328 328 328 328 328 327 327 328 327 327 327 327
342 346 347 349 349 348 348 346 342 338 333 325 323 324 323 326 332 334 335 337 336 336 337 333 328 329 331 332 334 333 335 339 340 341 341 342 342 342 341 341 340 338 336 335 336 336 337 339 340 340 340 339 339 337 337 336 336 336 335 335 335 336 334 331 327 325 327 328 328 328 328 327 328 329 329 330 329 328 328 327 328 328 327 326 327
342 346 347 348 349 348 348 347 343 340 334 325 324 325 324 328 333 335 336 337 336 337 336 331 328 331 333 333 333 333 336 339 340 341 341 341 342 342 342 341 340 338 335 335 336 335 336 337 338 339 339 339 339 338 337 337 337 337 335 336 336 337 335 330 326 325 326 328 327 327 328 328 329 330 330 330 329 328 328 328 328 328 327 327 328
342 347 347 348 349 348 347 346 344 340 334 326 323 325 325 330 335 336 337 338 337 337 334 331 329 331 334 335 336 337 338 340 340 341 341 342 342 342 342 342 340 337 335 335 336 336 335 336 337 338 337 336 337 337 336 336 336 336 336 336 335 336 334 329 326 325 326 327 327 328 327 327 327 329 330 330 330 328 328 327 327 327 327 327 327
343 346 346 347 348 348 347 347 345 341 335 326 324 325 326 332 336 337 339 339 338 338 334 330 330 332 335 337 338 338 339 340 341 341 341 342 342 342 342 341 338 335 336 335 335 336 335 335 337 337 337 335 334 334 334 334 334 334 335 335 333 333 331 329 328 327 327 328 328 328 327 326 325 326 329 330 328 327 327 327 327 327 326 327 327
341 344 345 346 347 348 348 347 346 341 335 326 325 325 326 333 337 339 340 339 339 339 334 330 330 332 335 338 338 338 339 340 340 341 341 341 341 341 341 339 337 335 336 336 335 335 335 335 336 337 337 334 332 333 332 332 332 333 334 335 333 330 329 328 327 328 329 328 328 327 326 326 326 327 329 329 328 326 327 327 327 327 327 327 327
336 340 342 344 346 347 347 347 345 342 334 325 326 326 330 336 338 340 339 339 340 339 335 331 331 333 335 337 338 338 339 340 340 340 340 340 340 340 339 337 335 333 334 336 335 334 334 334 335 336 335 332 332 332 331 331 332 332 333 334 331 327 327 326 325 325 326 327 326 325 324 325 326 328 328 328 328 327 328 328 327 327 327 327 326
334 337 340 345 347 347 347 346 344 343 335 326 327 327 333 338 338 339 339 339 340 339 336 333 332 334 336 337 338 338 339 340 340 339 339 339 339 339 337 332 329 329 330 332 333 333 333 334 335 334 331 331 331 330 330 331 331 331 332 332 329 326 326 325 324 323 323 325 326 326 325 325 327 327 328 329 328 328 328 327 327 326 326 326 325
336 338 342 346 348 348 347 346 344 344 336 326 328 328 332 337 338 338 340 339 339 339 337 335 334 335 337 338 338 338 339 340 340 339 338 338 338 337 333 329 326 325 326 326 328 333 334 334 333 331 330 331 330 328 329 330 329 329 329 329 327 327 327 326 324 323 322 323 325 325 324 325 327 328 328 328 327 328 327 326 326 325 325 323 323
343 342 344 345 347 348 346 345 344 341 333 328 330 330 331 335 337 337 339 339 338 338 338 337 336 337 338 337 337 337 338 340 340 339 338 338 337 335 330 328 327 324 322 321 325 331 332 331 330 330 331 330 328 328 329 330 329 328 328 328 327 327 327 325 324 324 324 324 326 326 324 325 327 328 328 327 327 326 325 325 324 323 323 321 322
346 346 346 345 346 346 346 344 342 337 332 331 332 332 332 333 336 337 338 339 338 338 338 338 338 338 338 337 337 337 338 340 340 338 337 336 335 333 329 328 327 323 321 319 321 325 328 329 329 331 330 328 327 328 328 330 329 328 328 327 327 326 325 324 323 324 326 327 327 327 327 327 327 326 326 326 325 323 322 322 322 323 323 322 323
345 346 347 346 346 346 344 343 340 336 333 334 335 335 334 330 332 336 338 339 338 337 338 338 338 338 337 337 337 337 338 339 338 337 336 335 334 332 329 328 326 323 320 319 318 321 326 328 330 330 328 327 327 329 329 329 329 328 327 327 326 326 324 323 323 325 327 328 328 328 328 328 326 325 325 325 322 322 323 323 323 323 322 322 323
343 344 345 345 346 345 343 342 340 336 335 336 338 339 337 329 328 335 339 339 337 337 337 337 337 337 336 337 337 337 338 338 337 335 335 335 334 332 329 328 326 324 321 318 318 320 325 329 330 329 327 327 327 329 329 329 329 327 327 326 326 326 325 322 322 326 327 327 327 327 326 325 325 324 325 324 323 324 324 324 323 323 321 322 323
343 342 343 343 344 344 342 340 341 339 336 337 340 340 336 329 329 335 338 338 337 336 336 336 336 336 336 336 336 337 337 337 336 335 335 335 335 333 329 328 326 325 322 319 318 319 325 329 329 327 327 326 326 327 327 327 327 327 326 326 326 325 325 323 322 324 326 326 324 324 323 324 325 324 325 325 325 325 324 324 323 323 323 323 323
344 342 340 341 342 344 342 339 341 340 338 339 341 340 336 332 333 336 338 337 337 335 333 334 334 335 335 335 336 336 336 336 336 335 335 334 335 333 329 328 327 325 322 319 318 320 326 328 328 327 326 325 325 326 326 327 327 326 326 326 326 325 325 324 322 323 325 325 323 324 324 324 324 325 325 324 323 323 324 323 323 323 323 323 323
343 342 342 342 343 343 342 338 340 340 338 340 340 340 335 333 336 338 338 338 336 334 332 333 334 334 334 335 336 336 336 336 336 335 334 335 335 333 329 328 328 325 321 319 319 323 327 328 327 326 326 326 327 327 326 328 327 326 326 326 326 325 324 323 322 322 322 322 324 325 325 325 325 325 325 325 323 324 324 323 323 323 323 322 322
343 343 344 343 343 343 341 338 338 338 336 339 339 338 334 333 338 339 339 339 337 335 335 336 335 334 335 337 337 337 336 336 336 335 334 334 335 333 330 328 327 323 321 320 322 326 327 327 327 326 327 327 328 328 328 328 328 326 326 325 325 325 324 323 321 321 322 323 325 326 326 326 326 326 325 325 325 324 324 324 324 323 322 322 321
343 344 344 343 343 342 340 337 337 336 335 339 338 336 334 334 338 340 340 339 338 336 336 337 335 335 337 338 338 336 336 336 335 335 334 334 334 334 330 328 326 324 323 322 324 325 326 326 326 326 326 327 327 328 329 329 329 326 325 326 325 325 325 323 321 321 323 325 326 327 326 326 325 325 325 324 324 324 324 323 322 321 321 322 321
341 343 343 342 342 341 338 335 335 334 335 337 337 336 335 335 337 340 340 339 338 337 337 338 335 335 337 338 337 336 335 334 334 334 333 333 334 334 330 328 328 327 325 325 325 325 326 326 326 327 327 328 329 329 329 331 330 327 325 326 326 326 324 323 321 321 324 326 326 327 326 325 325 324 324 324 324 324 323 322 321 321 321 322 321
340 340 340 338 339 339 334 328 329 331 334 336 335 336 337 335 336 339 341 340 338 338 338 338 337 336 337 337 337 337 336 334 333 333 332 332 334 334 331 328 329 330 329 328 327 327 327 327 328 328 329 330 330 330 330 330 331 328 326 326 326 325 324 323 322 322 324 326 326 326 326 324 324 324 324 324 324 323 323 322 322 322 321 321 320
340 339 337 334 334 336 330 322 326 331 333 333 332 335 337 335 336 339 340 339 338 338 339 339 338 338 338 337 337 338 337 336 335 334 331 332 333 334 333 329 329 331 331 330 329 329 329 329 330 329 330 330 330 331 330 329 330 328 327 326 326 325 324 323 322 323 324 325 326 326 325 324 323 324 324 324 323 323 323 322 321 321 320 320 320
339 339 337 335 336 338 332 323 325 330 330 329 329 333 336 335 335 338 338 338 337 337 338 339 339 339 339 338 338 339 339 338 337 335 331 330 332 333 333 330 329 330 331 332 331 331 332 332 332 331 331 331 331 332 330 328 328 328 326 326 326 326 325 323 322 324 324 325 326 325 324 324 323 323 323 323 322 322 322 321 321 320 320 320 320
339 338 338 338 340 341 339 333 329 329 328 328 329 332 335 334 334 336 337 336 336 335 336 338 339 339 339 338 339 339 339 339 338 336 333 329 330 331 332 331 329 329 331 332 333 333 333 333 334 334 334 334 333 333 329 327 328 328 327 327 327 327 326 324 322 324 325 325 326 325 324 324 324 324 323 323 322 321 321 321 321 321 320 320 320
337 337 337 338 340 341 340 340 337 333 332 332 332 332 334 335 335 337 336 335 334 332 332 337 339 338 340 339 339 339 339 339 337 337 334 328 328 330 331 331 330 329 330 332 333 334 334 334 334 335 336 336 335 332 330 328 329 329 328 328 328 328 327 324 322 322 324 325 325 325 324 324 323 324 324 323 323 322 322 322 322 322 321 320 320
337 336 336 338 339 339 339 340 340 337 335 334 334 334 334 335 337 337 337 334 331 328 327 334 337 338 339 338 339 339 339 339 336 337 335 328 328 330 330 331 330 330 330 332 333 334 335 335 335 335 336 337 335 332 330 330 330 329 329 329 328 329 328 325 323 322 323 325 325 325 325 324 324 325 325 324 324 324 323 322 322 322 321 320 320
336 336 336 337 338 338 338 339 340 338 336 335 334 335 334 334 336 336 335 333 328 325 325 329 332 334 335 337 339 338 338 337 334 337 335 328 328 329 330 331 331 330 330 332 335 335 336 336 336 336 337 337 335 331 331 331 330 330 330 330 329 329 329 327 325 323 322 323 324 325 325 325 325 325 325 325 324 324 323 323 322 321 320 320 320
336 335 335 337 338 337 337 338 339 340 340 339 337 336 335 334 334 334 333 331 326 324 323 327 330 331 331 336 341 339 338 337 334 336 335 329 328 328 329 331 331 330 331 334 336 336 336 336 336 337 337 336 334 331 332 332 331 331 330 330 330 330 329 328 327 325 323 322 323 325 325 325 325 325 325 324 324 324 324 323 322 321 321 320 320
336 335 335 336 336 336 336 337 338 339 340 340 340 338 337 336 334 333 332 329 324 321 324 331 335 334 332 335 340 340 339 338 336 337 334 331 329 328 329 331 330 331 334 337 338 338 338 337 337 337 336 334 333 333 333 333 332 332 331 331 330 330 330 329 328 326 324 323 322 323 324 325 325 325 325 324 324 324 324 323 322 322 321 321 320
336 335 335 336 336 335 336 337 337 338 338 339 339 339 339 339 338 336 334 331 323 320 328 336 337 336 336 337 340 339 339 339 338 338 335 331 330 329 330 331 331 333 337 338 339 339 338 337 337 337 335 334 334 334 334 333 332 332 332 332 331 331 330 329 329 328 326 324 322 322 323 324 324 324 324 324 324 324 324 323 322 322 322 321 321
336 336 335 336 336 336 336 337 337 337 337 338 338 338 338 339 339 338 337 333 323 321 332 338 337 338 338 338 339 339 339 339 339 339 336 331 331 332 333 332 332 335 338 338 339 338 337 338 337 336 335 335 336 335 334 334 333 333 333 332 332 331 331 330 330 329 328 327 325 324 324 324 323 322 323 323 324 324 324 323 322 323 323 322 321
337 336 335 335 336 337 337 337 337 336 336 337 338 338 337 337 339 338 338 334 324 324 335 337 337 338 338 337 338 339 339 339 339 339 337 334 334 336 337 335 335 337 337 338 339 338 338 337 335 335 336 336 336 335 335 334 334 334 333 332 332 331 331 330 330 330 329 329 327 326 325 325 325 323 323 323 323 324 323 323 322 323 323 323 322
336 336 336 336 336 336 336 337 336 336 336 336 337 337 336 336 337 337 337 335 327 327 334 336 337 337 337 337 337 338 339 339 339 339 339 337 337 338 338 338 338 337 337 338 339 339 338 338 336 336 336 336 336 335 335 335 334 334 334 333 333 332 332 331 331 330 330 330 329 328 327 327 327 326 325 324 323 323 323 322 322 322 323 323 322
336 336 337 336 335 334 335 336 335 335 336 336 336 335 336 335 335 336 336 335 331 329 333 335 336 337 337 337 337 339 339 339 339 339 339 339 338 339 338 338 339 338 338 338 338 339 339 338 338 337 336 336 336 336 336 335 335 335 334 334 333 333 332 332 331 331 330 330 330 329 329 328 328 327 326 326 325 325 324 323 322 322 322 322 322
337 336 336 334 334 334 334 334 335 335 335 335 335 334 335 334 334 335 335 334 333 332 333 335 335 337 337 337 338 338 338 338 338 339 339 338 338 338 339 338 338 338 338 338 338 339 339 339 339 338 337 337 336 336 336 336 335 335 335 335 335 334 333 333 332 331 331 331 331 330 330 329 329 328 328 327 327 326 326 325 323 323 323 322 322
338 337 336 334 334 335 334 334 334 334 334 334 335 334 335 335 334 335 335 333 334 333 333 335 336 336 335 337 339 338 338 337 338 339 338 337 338 338 339 338 338 339 338 338 339 340 339 339 339 337 337 337 337 336 336 336 336 336 336 335 336 335 334 334 333 332 332 332 332 331 331 330 329 329 329 329 328 327 327 326 325 325 324 323 322
337 336 336 336 336 336 334 334 333 334 335 334 335 335 335 335 334 335 335 333 334 335 334 336 337 334 334 336 338 338 338 337 338 338 337 337 338 337 338 338 338 338 338 338 339 338 338 338 338 337 336 336 336 336 335 336 336 336 336 336 336 336 335 334 334 333 333 333 332 332 331 331 330 330 330 330 329 329 328 328 328 327 326 324 323
338 337 336 336 336 336 335 335 334 334 334 334 334 335 335 335 335 335 335 334 334 334 335 336 337 335 335 335 336 337 338 337 337 337 337 337 336 335 335 336 338 338 337 337 337 337 337 336 336 335 336 336 335 335 334 334 336 335 336 336 336 336 336 335 335 334 334 333 333 332 332 331 331 330 330 330 330 330 329 329 329 328 328 327 325
335 336 335 335 334 334 334 335 335 334 335 335 335 335 334 335 335 334 334 335 334 334 334 335 336 336 336 336 335 336 337 336 336 336 335 335 334 334 333 333 337 337 337 336 335 336 337 334 334 335 334 334 334 333 332 334 336 336 336 336 336 336 335 335 336 336 335 335 334 334 333 332 332 331 331 331 330 330 330 330 329 329 329 329 327
333 333 333 333 333 332 332 333 334 334 334 334 335 335 334 334 334 334 334 335 335 334 333 334 335 337 337 336 335 335 336 336 336 335 334 333 332 333 332 331 333 335 335 333 332 335 335 332 332 335 334 331 332 332 331 333 335 336 336 338 339 339 338 337 336 337 336 336 335 335 334 333 333 332 331 331 331 331 331 331 330 330 330 329 329
332 333 332 331 332 333 333 333 334 334 334 334 334 334 335 334 333 334 333 334 335 334 334 333 334 337 338 336 335 335 336 336 336 335 334 333 332 332 331 330 330 331 332 330 328 330 332 330 331 333 334 333 332 330 329 330 332 334 336 338 337 339 343 340 336 337 337 336 336 336 335 335 335 334 332 332 332 332 331 331 331 331 331 330 330
332 333 333 331 331 332 333 334 334 334 334 334 333 333 334 334 334 334 334 333 335 334 333 332 333 335 337 338 337 336 337 337 336 334 333 333 333 334 333 331 330 330 330 329 328 328 326 326 328 331 332 333 332 330 329 329 329 331 334 337 337 340 345 340 336 338 337 337 337 336 336 335 336 335 334 333 333 333 332 332 332 331 331 331 331
331 332 333 333 331 331 331 332 333 334 334 333 333 333 333 334 334 335 334 334 334 334 334 332 332 334 335 337 339 338 338 336 336 334 332 331 333 335 335 333 331 330 330 330 331 330 324 321 324 327 330 332 332 331 331 330 331 331 331 334 336 339 341 337 337 340 339 337 338 337 337 336 336 336 335 335 334 334 333 333 333 332 332 332 331
330 330 331 332 332 332 331 331 332 333 334 333 333 333 333 334 334 335 334 334 334 334 333 331 331 334 333 335 337 339 339 337 335 335 333 330 330 333 334 334 334 332 332 332 333 332 328 322 322 325 326 330 333 333 333 333 333 333 333 332 332 333 334 334 336 340 340 341 339 337 338 337 337 337 336 336 335 335 335 334 334 333 333 332 332
330 330 331 331 332 332 332 332 332 333 334 334 333 333 333 333 334 335 335 335 334 334 333 330 330 332 332 333 335 337 339 337 335 336 336 333 330 329 329 332 335 334 334 335 335 333 330 327 327 328 327 329 333 334 334 335 334 334 335 334 333 331 331 332 334 335 337 340 339 336 337 338 338 338 337 337 337 336 336 336 335 335 334 333 333
329 330 331 331 332 332 332 333 333 333 334 333 333 334 333 334 333 333 334 334 334 334 333 332 331 331 331 332 333 334 337 337 336 336 337 337 335 332 328 328 333 336 336 336 336 334 330 329 331 333 332 332 333 334 335 336 336 336 335 336 335 334 332 333 335 335 335 338 339 337 336 336 337 338 338 338 338 338 337 337 337 336 336 335 334
328 329 331 332 332 333 332 332 333 334 334 334 333 333 334 334 332 332 333 334 334 335 334 333 333 333 333 334 334 334 335 335 335 336 338 339 339 338 335 330 329 333 337 338 337 335 332 331 333 334 335 336 336 337 337 337 337 338 336 334 335 335 335 335 336 337 335 334 337 337 334 335 336 337 337 337 337 338 337 337 337 337 337 336 335
327 328 331 331 332 333 332 332 333 334 334 334 333 333 333 333 332 331 333 334 335 335 335 335 335 335 335 335 334 334 335 334 333 334 336 337 337 338 338 336 331 328 332 336 337 336 335 334 334 335 336 337 338 339 338 338 339 339 337 334 334 334 334 334 335 336 334 332 333 334 333 334 335 336 337 337 337 337 337 337 337 337 337 337 336
Wind_Speed
19 20 18 19 15 15 14 14 15 16 16 16 17 17 17 15 14 16 17 18 19 20 21 21 21 22 23 22 22 22 23 23 23 23 23 24 24 23 22 21 21 20 19 19 19 19 19 19 19 19 20 21 21 21 22 22 22 23 23 22 21 21 21 22 21 21 21 22 22 21 20 20 19 20 21 21 21 20 20 20 20 21 20 19 18
23 21 19 18 16 14 13 14 16 16 16 16 16 16 16 14 14 16 18 19 19 20 20 20 21 21 21 21 21 22 23 23 24 24 24 24 23 22 22 21 20 20 19 19 19 19 19 19 19 20 21 21 21 21 21 21 21 21 21 21 21 21 21 20 20 20 19 20 21 21 21 20 20 21 21 20 21 20 20 19 19 21 20 18 18
25 23 21 19 17 15 14 14 16 17 16 16 16 16 15 14 14 17 19 19 19 19 19 19 20 20 20 21 22 23 23 23 23 22 21 21 20 20 20 19 19 19 18 19 18 19 19 18 19 19 21 21 21 21 21 21 21 21 20 20 20 20 20 20 20 19 18 19 20 22 22 21 21 21 20 20 20 20 20 19 20 20 19 18 19
26 23 21 19 18 16 14 14 17 17 16 16 16 16 15 14 15 17 19 20 19 19 18 18 18 19 20 21 22 23 22 21 20 18 18 18 18 19 19 18 17 17 17 18 18 19 19 18 18 19 20 20 20 21 21 22 22 21 20 19 20 20 20 20 20 20 19 20 21 23 23 22 21 20 19 19 19 20 20 19 20 19 17 17 21
26 23 22 21 18 17 15 15 17 18 17 16 16 15 14 14 15 17 20 20 19 19 18 18 18 20 21 21 20 20 20 19 18 16 16 17 17 18 17 17 16 16 16 17 18 19 18 18 18 18 18 19 19 21 22 22 22 21 20 20 20 20 20 20 21 21 22 23 22 22 22 22 21 20 19 18 19 21 20 18 19 19 18 18 20
26 23 22 21 19 18 15 16 17 17 17 16 16 15 14 14 16 18 19 19 19 19 19 18 19 20 20 19 18 18 18 17 16 15 15 16 16 16 16 16 15 15 16 17 18 18 19 18 17 17 17 17 18 19 20 20 20 20 20 19 18 18 20 21 21 23 23 23 22 21 21 21 21 19 18 18 19 20 18 17 19 19 19 19 20
25 24 23 22 21 19 16 16 17 17 17 17 16 15 14 15 16 18 19 19 19 19 19 19 19 19 19 18 17 17 17 15 15 15 15 15 15 16 15 15 14 14 15 16 17 18 18 18 17 16 16 17 17 17 17 17 16 18 19 18 15 15 19 20 21 22 21 22 21 21 22 22 21 19 18 19 19 18 18 18 18 18 18 20 22
25 24 24 23 21 19 17 16 17 17 17 17 17 16 15 15 16 17 18 18 18 19 19 19 18 18 18 17 17 16 15 15 15 15 15 15 15 15 14 14 13 13 14 16 16 16 17 17 17 15 17 19 18 17 16 16 15 16 16 15 15 16 19 20 20 21 20 21 22 22 22 21 21 19 18 19 18 16 18 19 19 19 18 22 24
26 24 23 23 22 20 18 17 17 18 18 18 17 16 15 16 16 15 15 17 17 18 19 19 18 17 17 16 15 15 14 15 15 15 15 16 15 15 14 13 12 12 14 16 16 16 16 17 16 16 17 19 18 16 16 14 13 13 13 14 19 20 21 20 21 21 21 22 22 22 22 20 19 18 17 18 16 16 18 20 21 21 21 23 24
26 24 23 23 22 21 19 18 17 18 19 18 17 16 15 15 14 14 14 16 16 16 18 19 18 17 15 15 14 14 14 14 15 15 15 15 15 14 13 12 10 11 13 15 15 15 16 16 17 17 16 17 17 15 14 13 11 11 13 16 20 21 20 19 19 20 21 21 22 22 21 20 20 18 17 17 17 18 19 20 21 22 23 23 22
27 25 24 24 23 21 20 19 18 19 20 19 18 16 15 14 13 14 14 15 16 16 17 18 18 16 15 14 13 13 14 14 15 15 15 15 14 14 12 11 9 10 12 13 14 15 16 17 17 18 17 17 16 15 15 14 13 13 15 18 19 20 19 18 19 20 21 21 21 21 20 19 20 18 18 18 18 19 20 20 20 21 22 21 21
28 26 25 24 22 21 21 19 19 20 20 20 18 16 15 14 13 14 14 14 16 16 17 18 17 16 14 14 13 13 13 14 14 14 15 14 13 13 11 10 9 9 11 13 14 16 17 16 17 20 20 17 16 17 18 18 19 18 18 19 19 19 18 18 20 21 20 21 21 21 21 21 20 18 18 19 18 18 18 18 19 19 20 19 19
29 28 27 24 22 21 20 19 19 19 20 20 19 17 15 15 14 14 14 15 16 16 16 17 17 15 14 13 13 13 13 13 14 13 13 13 12 11 10 9 9 9 10 12 14 15 15 17 20 22 20 18 18 18 18 20 22 21 20 20 19 19 18 19 20 21 21 21 21 20 20 20 19 18 18 18 17 17 17 17 18 18 18 18 18
28 28 28 26 23 21 19 18 18 19 20 20 19 17 16 15 15 15 15 16 17 15 15 16 16 15 14 13 13 13 13 13 13 12 12 12 12 10 10 9 9 9 9 12 14 15 16 20 23 22 20 18 17 16 17 19 21 21 20 20 19 18 18 19 20 22 22 21 20 19 19 18 18 18 17 17 17 16 16 16 17 17 18 18 18
23 24 25 25 24 22 20 18 18 18 19 19 18 17 15 15 16 16 15 15 16 15 15 15 15 15 14 14 13 13 12 13 13 12 12 11 11 10 9 9 9 9 10 11 14 16 18 22 23 21 20 18 17 15 16 18 21 20 19 19 18 18 18 19 20 20 21 20 20 20 21 20 18 17 16 17 17 16 15 16 17 18 19 19 18
21 21 23 23 24 23 21 19 19 19 19 17 16 15 13 14 16 16 15 15 16 15 14 14 14 13 13 14 13 13 12 13 13 12 12 11 10 9 9 9 9 9 10 11 13 16 19 22 22 21 20 20 20 18 16 18 20 20 19 19 18 18 17 18 19 19 19 20 21 21 21 19 18 17 16 17 17 17 17 17 17 18 18 18 18
25 24 25 23 23 22 21 20 19 20 19 16 13 13 12 13 16 16 15 15 15 15 14 13 13 13 13 13 13 13 12 13 13 12 11 10 9 8 8 9 9 9 9 10 12 15 19 22 22 20 20 21 22 22 21 20 20 19 19 18 17 17 17 18 19 19 19 21 21 20 18 17 16 16 16 18 18 17 17 17 17 17 17 17 17
29 29 29 26 24 23 22 21 20 19 19 16 13 12 13 14 16 16 15 14 14 14 14 13 12 13 13 12 12 12 12 12 13 12 11 10 9 8 9 10 9 9 9 9 12 15 20 22 21 20 21 20 22 24 24 22 21 18 17 16 16 16 15 16 18 18 19 20 18 17 16 16 16 17 17 17 18 17 17 16 16 17 17 17 17
27 30 30 28 27 27 25 23 21 20 19 18 14 12 13 15 16 16 15 14 13 13 13 13 12 12 12 11 11 11 11 12 12 11 10 10 8 8 9 10 9 9 9 10 12 17 21 21 21 21 21 21 22 23 23 22 20 18 16 15 14 14 13 15 16 17 18 17 16 17 17 16 16 17 16 16 16 16 16 16 16 16 16 16 17
26 28 30 30 29 29 27 25 24 21 20 20 16 14 14 15 16 15 15 14 13 13 13 13 12 12 12 11 11 11 11 11 11 11 10 9 8 8 9 10 10 10 10 12 15 19 21 21 21 21 20 20 21 21 21 19 18 18 16 13 12 11 12 13 15 17 17 16 17 17 17 16 17 17 16 16 16 16 16 15 15 15 15 15 16
27 28 29 30 29 29 28 27 25 21 21 21 18 16 15 16 16 15 15 14 14 14 13 13 13 12 12 11 11 11 12 11 11 11 10 9 8 8 9 11 12 13 13 15 18 20 21 21 21 21 19 19 19 18 18 17 15 16 15 12 11 10 11 12 14 16 18 18 18 16 16 16 16 16 16 16 16 16 16 15 15 14 14 14 14
28 29 29 30 30 29 28 27 25 22 23 22 20 19 17 17 16 15 15 15 14 14 14 14 14 13 12 12 11 11 12 12 11 11 10 9 8 8 10 12 15 16 17 18 19 19 20 20 21 20 19 19 17 16 16 15 13 14 14 11 10 10 11 11 13 16 17 18 17 16 16 16 15 16 16 15 15 15 15 14 14 13 13 13 14
29 30 30 31 30 29 28 28 26 24 24 24 23 21 20 19 17 17 16 16 15 15 14 15 15 14 13 12 11 11 11 11 11 11 10 10 8 8 10 13 17 18 20 21 20 20 20 21 21 20 19 17 14 14 12 11 11 12 12 10 9 10 10 11 13 15 16 17 16 15 15 15 15 15 15 15 15 14 14 13 13 13 12 12 13
29 30 31 31 31 31 31 30 27 26 25 25 25 23 21 20 19 18 16 17 17 16 16 16 16 15 14 12 11 10 11 11 11 11 11 10 9 9 10 13 17 18 19 21 21 21 21 21 20 19 17 15 14 14 10 8 9 12 12 10 9 9 10 11 13 15 17 17 16 15 14 14 14 14 15 15 14 14 14 13 13 12 12 11 11
28 28 31 33 32 33 33 32 30 29 28 27 27 25 23 21 21 20 18 18 18 17 17 16 17 16 15 13 11 10 11 11 12 11 12 12 11 10 11 13 16 16 17 18 18 19 19 18 18 17 15 14 14 13 10 9 10 13 12 9 9 9 9 10 12 15 16 16 15 13 13 13 13 13 14 14 14 14 13 13 12 11 10 10 11
28 29 32 33 33 32 32 34 34 32 30 30 29 27 26 24 23 22 20 20 19 19 18 18 18 17 16 15 13 12 12 12 12 12 12 13 13 12 12 13 15 15 15 15 15 15 14 14 14 14 12 10 9 8 10 11 11 12 11 9 9 8 8 8 12 14 15 15 14 12 12 11 12 13 13 13 13 13 13 12 11 11 10 10 10
28 28 29 30 30 28 27 31 33 34 33 32 31 30 27 25 25 24 23 22 22 21 21 20 19 18 18 17 16 14 14 13 13 12 13 14 14 13 13 13 14 13 13 13 12 12 11 10 9 10 9 7 6 6 12 13 9 10 10 9 8 7 7 8 11 12 13 13 12 11 11 11 11 12 11 12 12 12 12 12 11 11 10 9 9
26 25 26 25 26 25 25 27 29 32 33 32 32 30 28 26 25 25 23 23 23 22 22 22 21 20 19 18 17 15 15 15 13 13 13 15 15 14 14 14 14 13 12 11 11 9 8 8 7 7 6 5 6 8 12 12 8 8 8 8 7 6 7 8 9 11 12 12 12 11 11 11 11 11 11 11 12 12 12 12 11 11 10 9 9
23 23 23 22 23 23 23 25 27 29 30 30 30 30 29 27 26 26 24 22 22 22 22 23 23 21 21 19 17 16 16 16 14 13 14 15 15 15 15 15 15 13 12 11 10 8 7 7 6 5 5 4 6 11 13 11 8 7 6 6 6 5 6 8 8 9 11 12 11 11 10 10 11 11 11 11 11 12 12 11 11 10 10 9 8
21 19 19 20 22 22 21 23 25 26 28 28 29 30 30 29 28 27 24 23 22 22 22 23 22 21 21 20 17 17 18 17 15 14 15 16 16 16 16 15 15 14 13 11 8 7 6 6 5 4 4 5 9 14 14 10 9 8 6 5 5 5 5 7 8 8 10 11 11 11 10 10 11 11 10 11 10 11 11 11 10 9 9 9 8
16 15 17 18 20 20 20 22 23 23 25 27 28 30 31 31 31 28 26 24 23 23 23 22 21 20 21 21 18 18 18 17 16 15 16 17 17 17 18 17 15 15 14 11 9 7 6 6 6 5 4 8 13 15 13 11 10 9 7 6 5 5 5 6 7 7 8 9 11 12 11 10 11 11 10 10 9 10 10 10 10 9 9 8 8
11 12 14 15 16 17 18 20 22 21 21 23 23 25 28 29 30 29 27 24 24 24 23 22 20 18 20 21 20 20 19 18 17 17 17 17 18 19 18 18 17 16 14 11 9 8 8 8 8 8 8 13 15 13 11 11 11 10 9 7 6 5 5 5 6 6 7 7 9 11 11 11 11 11 11 10 9 9 10 10 10 10 9 8 8
8 10 10 11 13 14 15 16 19 18 18 18 16 17 20 22 25 26 25 24 24 25 24 22 20 18 19 20 20 21 20 18 18 17 17 17 18 19 19 18 17 16 14 12 11 10 10 10 10 9 13 17 14 12 12 11 11 11 10 9 8 7 5 5 5 5 6 6 7 9 9 10 10 10 11 11 10 9 10 10 10 11 9 9 10
9 9 8 9 10 10 10 13 16 17 16 15 13 12 13 13 17 20 22 22 23 26 24 22 20 19 19 20 21 22 20 18 18 18 17 18 19 19 18 17 16 16 14 13 13 11 9 9 10 14 17 16 12 13 14 13 12 11 11 10 9 8 7 6 5 4 4 5 6 7 8 7 7 8 11 12 12 10 10 11 10 11 10 9 11
11 10 8 8 7 4 4 9 14 16 14 14 15 14 12 12 13 16 19 21 23 25 24 23 20 20 21 20 21 22 21 19 18 20 18 19 19 19 18 17 15 15 14 13 13 11 9 9 14 17 16 13 13 14 14 14 13 12 12 12 11 9 9 8 7 6 4 4 5 6 7 6 6 6 8 10 11 11 11 11 11 11 10 10 12
11 10 8 6 5 1 2 5 10 13 11 11 15 14 11 12 15 17 16 18 23 24 23 23 21 21 22 20 21 21 22 20 19 20 20 18 19 19 19 17 16 16 15 14 13 12 11 12 14 14 14 14 14 15 15 15 15 13 12 13 13 11 10 10 10 9 7 6 6 6 7 7 6 6 7 8 8 9 10 10 10 12 12 11 12
5 8 7 6 6 3 2 5 7 9 9 9 11 10 9 11 13 17 18 16 22 25 22 23 22 22 23 20 20 21 21 21 20 21 21 18 18 19 19 18 17 16 16 16 15 13 12 12 12 13 14 14 14 15 16 17 15 14 14 14 14 13 13 12 12 11 10 10 8 8 8 8 8 7 7 7 7 7 8 8 7 9 11 12 12
1 3 4 4 8 8 6 9 11 12 16 16 15 14 13 12 12 15 20 16 18 26 25 23 24 24 23 21 19 20 21 21 21 22 21 19 17 17 18 17 17 16 17 17 15 13 12 12 12 13 14 14 14 14 16 17 16 15 15 15 14 14 14 14 14 14 13 12 11 11 10 9 10 10 9 9 8 8 8 8 7 7 9 11 12
7 6 5 5 11 16 19 22 21 18 22 25 24 21 16 15 15 13 19 18 13 22 28 25 27 27 24 23 21 19 21 22 22 22 21 20 18 17 17 17 16 17 17 18 16 15 15 13 12 13 14 13 12 14 16 17 16 16 16 15 15 14 14 15 16 16 16 15 13 13 13 12 12 12 11 10 11 10 10 9 8 8 8 9 11
6 6 6 8 12 17 22 28 29 23 22 27 28 27 21 17 17 14 17 21 13 15 26 28 28 29 26 25 24 19 20 22 21 23 22 20 20 18 18 18 18 17 18 18 17 17 16 14 13 13 13 13 11 12 15 16 18 17 16 16 15 14 14 16 17 18 18 17 15 15 15 15 15 14 13 12 12 12 12 12 11 10 10 10 11
1 2 6 11 12 14 20 24 27 25 23 28 31 31 28 22 21 18 16 21 17 10 18 29 29 29 29 27 26 23 21 21 21 23 24 21 21 20 18 18 20 19 18 18 17 17 16 13 13 14 14 13 11 9 11 16 18 15 14 15 17 17 15 16 18 19 19 18 17 17 18 18 18 17 16 15 15 15 14 14 14 13 12 12 12
1 2 6 11 12 13 17 20 22 24 24 28 31 33 33 30 28 27 21 19 21 12 9 21 27 27 29 29 29 27 25 24 22 23 24 22 22 22 19 17 20 21 19 17 17 18 17 13 11 14 15 14 13 10 9 13 16 13 10 9 11 15 16 16 17 18 19 19 18 19 20 20 21 19 18 18 17 17 17 17 16 16 15 15 14
5 2 5 9 12 11 13 16 18 22 23 25 30 33 36 36 34 33 27 20 21 18 8 11 22 25 28 30 30 30 28 27 26 24 23 22 22 24 22 19 20 21 19 18 18 19 19 14 11 14 16 15 15 13 10 11 13 11 7 4 3 5 9 13 17 20 20 20 20 20 21 22 22 21 21 21 20 20 19 19 19 19 18 17 16
7 5 4 5 9 11 12 14 16 20 24 25 27 31 33 36 36 35 32 25 23 24 15 10 16 23 25 29 30 30 29 28 28 27 25 24 23 23 23 22 22 22 20 18 18 19 20 17 13 13 15 15 16 15 14 13 13 11 5 1 1 1 2 7 13 19 22 22 22 21 21 22 22 22 23 23 23 23 22 21 21 21 21 20 19
8 7 5 3 4 9 13 15 16 19 22 25 25 26 28 31 33 30 28 27 24 25 21 15 12 18 22 26 28 28 28 28 27 27 28 27 25 23 21 22 24 23 22 19 18 18 20 20 17 15 16 17 17 17 17 16 16 15 10 4 1 1 3 3 4 10 14 18 22 22 22 22 23 23 23 24 25 25 25 25 24 24 23 23 22
9 8 6 4 3 7 12 14 16 18 19 22 24 24 26 29 31 29 27 28 25 25 27 23 16 14 17 22 26 27 27 28 26 25 27 29 29 26 21 21 24 24 23 20 19 19 19 21 21 19 19 19 19 19 19 18 16 17 17 14 9 5 3 0 0 2 5 9 15 20 22 23 23 24 24 25 25 26 27 27 27 27 26 25 25
10 8 6 5 3 5 9 13 16 18 19 20 22 24 25 28 31 32 30 30 28 27 30 29 22 16 15 18 22 26 27 27 27 25 26 28 30 29 24 20 22 24 23 21 21 20 20 20 20 21 21 20 20 21 21 19 17 17 17 18 19 16 11 6 2 2 4 5 7 13 18 21 23 25 26 26 26 26 28 28 29 29 29 28 27
9 8 6 6 5 4 6 9 12 15 19 20 22 24 23 25 28 29 29 31 31 30 30 29 27 21 17 17 20 24 27 28 28 27 26 27 28 29 27 23 22 23 23 23 22 22 21 20 20 21 21 21 21 21 22 20 18 18 16 16 17 19 18 13 9 6 3 3 6 8 10 15 20 23 25 27 27 27 28 29 30 30 30 30 29
8 9 6 5 5 5 4 5 8 13 16 17 21 24 22 19 20 20 22 26 29 29 28 28 28 25 20 20 21 23 25 27 27 27 27 27 27 27 27 26 24 24 24 24 23 21 21 22 22 22 22 22 22 22 22 21 20 20 19 16 15 16 16 13 11 9 5 4 4 4 7 9 13 19 22 25 27 28 29 30 30 31 31 31 31
8 9 7 4 4 5 4 4 6 11 13 14 19 24 22 19 17 17 18 21 23 24 25 25 26 25 21 20 21 23 24 25 26 26 26 26 25 24 25 27 26 24 24 24 23 22 22 22 22 22 22 22 22 22 23 23 21 18 14 11 12 14 12 9 9 8 5 6 6 6 10 10 9 16 19 20 23 25 27 30 31 32 32 32 32
9 9 7 5 4 6 4 3 6 9 12 13 18 21 23 23 22 20 19 19 21 21 23 23 23 23 22 20 20 20 22 23 24 24 24 23 22 22 22 24 26 25 25 24 24 23 23 23 22 22 22 22 21 21 21 22 20 15 11 9 10 10 9 8 11 8 1 2 5 7 12 14 12 16 19 18 19 20 22 26 29 31 32 33 32
Wind_Direction
168 165 161 162 161 159 155 153 150 150 148 144 143 143 141 135 127 123 121 122 121 122 123 123 122 121 119 117 115 115 113 110 107 106 105 105 104 103 104 105 105 103 103 102 99 97 95 97 98 99 99 99 99 98 98 98 99 99 98 97 94 94 94 93 91 89 86 83 82 80 78 79 79 79 80 80 81 81 81 83 85 85 84 84 82
165 163 161 161 158 156 156 153 152 152 150 148 146 145 142 136 130 126 125 125 125 124 124 124 123 122 120 119 118 116 112 108 107 107 106 104 102 101 100 99 99 101 103 103 102 99 97 97 99 100 100 100 100 100 100 100 100 99 98 96 94 92 88 86 84 84 84 85 83 80 79 80 82 82 82 81 81 82 83 84 87 87 88 88 87
159 160 161 158 156 156 157 154 154 154 153 152 149 147 143 138 133 129 128 128 128 126 125 124 123 122 120 120 119 115 111 109 108 107 106 103 102 101 100 99 98 98 100 103 104 103 100 98 99 100 100 101 100 99 99 98 98 98 97 96 94 88 83 83 81 80 82 86 87 82 82 84 84 83 82 82 82 84 85 87 91 88 88 95 97
154 155 157 157 157 156 157 155 154 156 155 154 151 149 145 140 136 132 131 131 131 128 126 124 123 120 120 119 116 114 112 110 108 105 104 103 104 102 101 100 99 98 99 102 103 104 103 101 101 100 100 101 101 100 100 98 96 95 96 95 94 88 86 84 79 79 84 88 89 87 87 87 85 84 84 85 87 89 89 90 92 91 92 98 100
151 149 154 158 158 156 158 155 155 157 156 156 153 150 147 143 139 136 134 133 133 130 127 124 122 120 120 117 114 115 113 111 108 105 105 106 107 104 102 101 99 97 96 98 102 104 105 104 104 102 101 103 103 103 102 100 97 96 94 94 96 95 93 89 82 84 88 90 89 90 90 87 84 85 87 91 93 92 94 96 98 98 94 92 98
148 146 153 158 158 158 160 155 155 158 157 157 155 151 149 146 142 139 138 136 135 132 130 127 124 122 120 117 116 117 115 111 107 104 105 107 107 104 103 101 100 97 95 97 100 105 108 107 106 104 104 104 104 104 104 103 101 100 99 98 98 97 99 95 88 90 94 95 93 92 91 89 87 88 93 92 89 90 95 98 98 95 91 89 91
145 146 154 156 158 159 161 158 157 159 159 159 157 154 151 150 146 142 141 138 137 136 133 131 129 126 121 119 118 118 115 110 106 104 104 106 107 104 103 101 99 95 95 98 100 106 110 111 109 107 109 108 105 105 106 105 104 104 106 107 102 98 102 99 93 95 99 101 98 95 94 90 85 86 93 91 88 93 97 97 97 94 92 91 88
144 148 153 155 159 160 162 161 160 161 161 161 160 156 154 153 149 144 142 140 139 138 136 134 133 129 124 122 121 118 114 110 107 106 105 107 107 105 102 99 98 95 96 101 103 105 109 114 113 112 115 114 109 108 108 107 106 106 108 106 98 101 108 102 97 100 103 104 101 97 94 91 84 80 84 88 91 93 94 94 96 95 95 93 90
145 149 153 155 158 159 161 162 164 163 162 164 162 158 156 153 149 143 140 142 142 141 140 137 134 132 128 125 123 119 113 109 108 107 107 107 106 104 100 96 95 95 97 102 106 107 110 114 116 118 117 116 115 114 111 107 104 106 108 102 98 107 113 105 101 102 103 104 101 96 92 90 89 87 88 91 93 93 92 93 92 92 92 90 89
149 151 153 155 157 160 160 160 162 163 163 164 162 160 157 153 147 143 142 145 144 143 143 140 138 136 132 127 123 119 115 112 111 108 107 107 105 102 98 96 94 97 101 102 107 111 114 115 118 121 118 119 122 116 106 99 103 113 116 112 109 113 114 107 102 101 102 102 99 95 91 89 90 93 94 92 92 93 91 89 89 89 87 86 87
154 155 155 157 159 161 160 157 158 160 163 165 161 159 155 149 145 143 145 148 146 146 146 144 143 141 136 130 125 122 118 116 115 111 109 107 104 101 99 100 99 104 107 106 111 115 117 117 119 125 126 126 122 109 98 96 106 118 126 127 122 117 113 106 99 99 100 98 95 93 92 91 89 91 93 92 90 88 86 86 87 86 85 85 85
154 156 156 157 160 162 160 158 157 158 163 166 163 159 154 147 148 149 149 151 149 150 149 147 147 145 141 134 131 126 121 119 116 113 111 108 105 104 103 102 101 104 109 111 115 116 119 119 122 130 132 128 116 104 96 98 109 117 126 130 124 116 109 102 97 97 100 98 96 95 96 95 94 94 96 96 94 90 87 86 86 87 87 85 85
153 155 154 154 158 160 159 157 157 158 162 165 165 161 159 153 153 156 155 152 151 153 153 152 151 149 145 139 135 128 123 121 118 115 112 111 109 109 107 100 95 96 105 113 116 116 118 122 127 132 132 123 112 105 98 102 113 118 123 125 119 113 106 101 98 98 103 105 103 101 100 99 100 99 95 95 96 95 91 89 88 87 86 88 91
149 151 151 153 156 158 157 156 156 158 162 165 166 164 164 159 157 160 158 154 153 155 156 155 155 151 147 144 138 131 127 124 121 117 114 112 112 114 109 97 89 90 99 112 121 123 124 128 131 132 127 118 109 105 104 109 118 120 120 119 115 112 106 102 102 102 107 110 108 106 104 101 100 96 93 94 95 94 94 94 92 90 91 96 96
141 145 149 152 153 156 155 154 155 157 163 164 166 167 168 163 158 161 161 159 157 158 159 158 156 152 149 147 141 133 129 128 124 121 117 115 116 116 107 93 84 87 96 109 124 132 133 133 133 130 121 111 104 105 110 116 121 119 116 114 112 109 104 102 104 106 110 112 109 106 102 99 97 93 94 96 95 95 100 101 98 97 97 98 97
139 146 150 152 154 157 154 153 156 158 162 164 167 166 166 166 160 161 162 162 160 161 162 160 158 155 151 148 143 137 132 131 128 124 120 116 117 115 104 89 80 83 93 106 122 133 136 135 133 127 117 106 100 104 116 124 123 119 116 113 110 107 102 102 106 108 109 107 104 103 101 100 99 97 99 99 99 100 103 105 104 102 100 100 99
146 155 155 155 158 158 152 151 156 158 162 165 168 166 165 170 165 162 163 163 162 163 164 161 159 157 154 152 146 141 136 135 132 126 122 118 116 115 102 86 80 82 91 107 121 132 136 135 133 124 114 107 102 103 111 120 123 122 119 115 111 107 102 101 108 111 108 104 102 103 102 102 104 105 105 106 107 106 105 106 107 106 108 108 104
150 158 158 156 159 161 153 149 154 158 165 168 169 171 170 172 166 162 163 164 163 164 166 161 160 159 157 156 151 146 142 139 136 129 126 121 117 115 101 86 81 82 91 108 119 130 135 136 131 121 116 111 107 106 108 111 117 120 118 115 111 108 104 102 111 117 114 109 105 104 106 107 110 111 110 110 111 111 109 109 110 111 112 111 109
151 157 157 157 160 163 157 151 157 159 165 169 168 172 173 170 165 163 164 165 164 164 166 162 162 162 160 161 156 151 147 143 140 135 131 126 121 115 101 88 83 85 94 106 118 129 134 135 128 120 117 112 108 108 108 109 114 118 116 115 112 109 106 104 113 123 123 117 112 111 112 114 114 116 116 114 114 114 113 113 115 115 115 114 114
156 159 158 160 163 165 160 155 159 159 164 168 166 169 171 167 165 168 166 166 168 165 165 165 166 166 164 164 162 157 153 150 147 141 137 133 125 116 104 92 88 95 102 110 121 128 132 132 125 120 116 112 110 109 110 111 119 125 122 119 116 110 106 107 116 124 123 121 120 119 117 118 120 120 119 119 120 119 118 119 120 118 118 119 119
160 162 162 163 165 165 161 157 158 159 161 165 167 166 164 165 168 173 170 169 171 169 168 167 169 170 167 166 166 163 159 158 154 148 144 138 127 120 110 100 99 104 109 114 123 129 132 131 126 121 117 115 114 115 115 111 121 132 130 127 120 111 109 111 121 124 122 124 126 126 124 123 123 122 120 121 121 121 122 123 122 120 121 123 123
163 165 165 166 167 166 164 159 158 159 161 164 166 163 162 167 173 176 174 174 175 174 174 171 172 173 170 168 171 170 166 165 162 158 153 143 134 128 120 109 107 110 112 115 121 128 133 132 128 124 121 121 118 117 117 108 115 133 135 131 120 113 113 116 123 126 126 128 130 129 127 125 125 124 124 125 124 123 125 124 124 125 125 125 124
170 170 168 169 169 167 167 163 160 161 162 165 166 165 166 169 176 178 175 176 178 180 181 178 176 176 174 173 176 175 172 170 170 169 161 150 144 138 131 121 114 113 115 117 121 126 129 130 128 127 124 121 118 115 116 117 124 139 142 132 119 114 115 119 125 130 131 130 130 130 128 128 128 129 129 130 130 128 128 127 128 130 128 126 126
177 175 172 173 174 172 172 167 163 163 163 165 166 168 170 171 177 179 174 175 180 183 183 182 180 181 180 178 179 180 176 172 172 174 167 159 155 151 144 134 125 120 120 121 125 127 128 129 128 127 126 119 114 106 102 123 142 149 148 134 122 117 116 123 129 133 134 133 133 134 133 132 132 133 133 133 133 133 132 131 131 132 131 130 130
178 176 177 180 180 179 177 170 165 165 164 166 168 172 173 173 178 181 178 177 181 183 183 184 185 186 184 181 183 186 182 174 176 176 171 168 166 165 159 149 141 134 131 129 130 132 129 128 128 129 127 120 112 99 100 126 144 150 150 139 126 117 116 128 137 138 139 138 138 140 139 138 139 138 137 135 134 135 134 135 135 137 136 135 134
178 180 182 184 185 184 181 172 168 167 166 168 170 174 177 178 181 184 184 183 185 187 188 186 186 188 184 182 182 187 187 181 182 179 175 175 175 175 169 162 157 150 147 146 145 144 140 136 133 133 132 128 120 104 122 138 142 147 147 137 125 114 116 134 145 144 143 143 142 144 144 142 143 144 142 140 139 139 139 140 140 141 140 138 139
182 185 186 187 188 187 183 175 170 169 169 170 169 173 179 182 185 187 189 191 191 193 195 189 187 187 183 182 181 185 190 187 187 182 180 181 181 181 176 173 172 167 163 163 165 162 159 156 147 146 147 148 150 131 139 149 148 145 144 135 124 108 110 135 150 150 146 144 145 148 149 146 148 151 151 150 147 146 145 145 145 146 146 146 147
184 188 189 188 189 187 183 177 173 170 170 170 169 173 179 185 188 189 190 194 195 196 198 192 189 187 184 184 184 189 195 193 192 188 185 183 185 186 180 180 181 178 177 178 182 175 166 168 166 167 165 158 168 154 147 157 161 153 148 140 130 110 108 128 145 149 145 146 151 154 154 154 157 157 157 156 154 152 151 151 151 151 152 153 154
187 190 191 190 188 188 185 181 176 174 174 173 171 174 179 184 189 190 190 194 197 196 196 193 191 190 188 187 188 194 200 200 198 194 190 186 186 188 185 187 187 185 187 189 192 188 175 173 176 179 171 164 179 166 157 167 175 170 165 152 139 120 114 123 133 146 150 156 161 159 160 162 162 164 163 161 158 157 156 156 155 156 157 158 160
191 193 193 191 190 192 191 185 180 177 178 178 178 179 181 185 189 192 192 195 198 195 192 191 191 193 191 190 193 199 203 204 202 197 195 190 188 191 190 190 190 190 194 197 203 202 196 203 209 200 188 193 187 171 167 180 186 184 183 170 154 134 122 122 125 141 155 164 163 160 167 169 168 170 170 166 166 165 161 157 160 161 163 165 167
192 193 191 192 193 194 192 186 183 181 182 183 183 184 185 187 190 192 194 195 195 192 189 188 188 191 192 192 196 205 207 207 204 200 197 191 189 192 193 193 192 192 198 206 208 213 223 236 238 238 225 192 181 176 178 188 192 194 193 184 171 154 141 132 127 135 152 165 165 166 173 177 177 179 176 173 174 173 167 163 166 168 169 172 174
194 193 190 191 193 194 192 189 187 186 187 187 185 186 188 190 191 193 194 193 191 188 186 187 188 191 196 196 200 207 210 210 208 204 199 193 191 193 195 195 192 193 201 208 214 229 240 241 246 251 213 180 175 182 189 193 195 199 201 197 187 175 165 149 136 135 144 157 166 171 177 182 187 189 184 181 183 180 177 176 175 175 175 178 182
196 196 192 185 185 189 192 196 194 191 191 190 189 192 193 194 195 196 196 193 188 186 183 186 190 194 201 202 204 209 211 212 211 208 200 194 193 193 196 197 195 197 203 211 223 235 241 243 243 224 189 178 179 188 193 196 196 198 203 206 199 191 185 173 161 146 143 147 158 164 169 180 191 195 188 185 196 195 187 189 188 185 185 188 191
202 196 186 175 175 185 197 205 200 193 191 191 194 201 203 201 199 202 205 201 189 185 183 187 194 201 207 207 208 211 211 212 210 208 202 195 195 196 197 199 202 203 204 214 224 227 236 236 206 185 180 181 186 190 193 197 197 199 204 209 209 204 200 194 187 174 162 155 162 167 165 172 183 191 187 184 196 204 196 197 197 195 197 198 198
204 192 182 175 169 175 205 212 205 200 195 194 199 203 203 200 201 205 212 211 194 186 186 190 198 207 210 209 211 213 212 212 209 207 203 197 199 202 202 202 208 208 205 212 221 225 224 197 177 177 181 186 189 191 195 199 200 204 206 208 213 215 214 210 207 201 200 196 197 195 184 184 185 186 189 187 195 204 204 207 205 201 205 206 202
206 192 177 165 167 180 246 218 210 207 204 207 210 207 207 206 203 201 208 214 200 191 191 194 202 211 210 210 213 212 212 211 208 207 206 203 204 208 207 208 214 214 209 211 216 220 209 187 180 182 185 188 190 194 200 201 203 206 209 211 213 220 223 220 222 218 213 219 227 224 213 213 216 207 203 200 203 207 209 219 218 208 207 210 209
216 202 179 157 176 195 260 241 232 224 215 225 228 225 237 231 211 200 200 210 207 200 195 197 205 210 208 211 212 208 210 211 209 209 208 205 207 209 210 214 218 216 210 210 214 214 207 196 193 193 194 195 193 198 203 202 203 206 210 213 213 220 227 227 232 230 225 227 230 234 233 233 239 235 226 223 226 223 219 227 232 219 213 214 216
54 194 191 194 211 214 230 238 241 232 216 218 227 228 239 238 228 214 202 206 218 209 203 205 207 208 207 209 208 206 210 211 208 209 206 202 205 208 212 215 215 213 208 207 211 211 207 206 205 201 203 205 201 203 206 204 204 206 211 215 214 219 229 233 235 234 233 236 237 238 240 241 245 247 245 243 244 243 237 236 239 237 229 224 222
68 97 133 174 211 214 222 228 229 226 212 209 215 220 225 223 225 228 206 205 228 215 209 213 208 205 206 204 203 207 209 209 208 207 203 201 202 207 213 213 208 207 205 205 207 208 205 210 213 209 211 217 219 215 211 208 205 207 212 217 217 221 227 231 234 234 237 242 246 247 245 244 246 248 251 253 254 253 251 248 246 248 250 243 234
75 98 142 179 201 205 212 222 224 224 215 208 213 216 215 213 217 232 215 203 218 219 206 207 206 202 204 203 203 203 200 201 206 204 202 203 202 206 212 211 208 205 204 206 207 206 206 214 220 216 217 223 223 221 219 214 208 208 214 218 221 225 228 229 232 235 239 243 246 248 248 248 248 247 250 255 258 258 257 258 257 256 259 256 247
133 173 202 205 207 203 205 214 219 221 218 213 216 216 212 209 209 225 229 204 205 227 203 197 202 202 201 204 204 201 195 193 195 197 199 202 201 205 210 210 209 206 206 210 208 207 210 222 229 219 217 223 221 225 232 218 206 205 214 221 223 225 228 231 235 237 240 243 245 246 249 251 251 250 251 254 257 259 260 262 262 262 263 261 254
349 220 220 206 194 191 200 211 216 217 218 215 215 216 212 207 204 211 228 217 203 218 219 195 198 203 201 202 204 203 202 199 194 194 197 199 201 206 210 208 208 207 212 217 213 214 219 227 232 218 214 226 234 239 238 213 201 204 209 219 230 232 234 237 239 240 241 243 245 247 249 251 253 254 253 253 256 257 260 263 264 264 264 263 258
1 323 246 220 201 197 206 212 214 216 217 215 214 214 213 211 208 205 214 224 207 202 230 210 193 199 201 200 203 205 206 207 203 201 200 201 204 207 209 211 211 212 216 218 216 220 225 227 225 217 215 225 236 243 240 217 207 209 203 206 236 237 247 248 243 240 240 243 246 248 250 251 253 256 254 254 256 257 259 262 263 263 264 264 262
0 352 312 255 221 217 216 213 215 219 220 218 216 214 212 212 212 210 209 216 211 198 216 245 197 192 200 200 203 206 207 209 208 207 206 205 208 209 210 215 216 215 217 217 217 219 223 226 221 218 222 227 235 243 246 239 227 221 206 173 151 126 276 259 245 243 241 241 243 245 250 253 254 253 252 254 257 258 259 260 261 263 263 263 263
8 360 352 318 243 223 219 219 224 228 225 222 219 212 206 205 207 210 209 211 211 201 209 242 216 186 196 201 203 207 207 208 208 208 209 208 210 212 213 217 217 216 218 220 224 225 223 225 224 224 228 231 237 243 249 250 243 238 232 211 116 76 252 249 257 256 248 242 242 242 245 251 254 253 252 254 258 259 259 260 261 261 261 261 261
15 2 4 358 289 235 226 229 231 235 235 227 223 216 204 199 199 201 203 203 205 203 204 224 228 192 192 202 202 205 207 207 208 208 210 209 212 216 217 216 215 216 219 223 231 233 228 225 226 228 231 234 238 240 247 251 250 249 245 238 240 252 259 287 44 299 289 260 245 242 243 247 252 254 254 255 257 259 260 262 262 262 262 262 261
22 1 350 356 334 255 242 242 237 237 241 232 225 222 209 202 201 200 203 201 202 206 204 214 233 222 202 204 204 204 206 208 209 208 211 212 214 219 221 216 214 216 220 226 232 235 233 230 230 233 237 239 238 237 244 251 253 254 254 251 252 255 266 282 263 287 326 296 263 252 248 248 250 253 256 257 258 259 262 263 264 264 263 263 263
28 14 347 343 343 309 271 257 247 242 243 234 222 221 214 207 206 204 205 202 202 205 203 210 230 234 219 214 209 206 208 209 210 210 213 217 219 223 226 223 218 218 222 228 233 236 237 235 235 238 241 244 244 242 246 252 254 256 261 266 267 266 268 275 278 281 289 292 297 287 269 261 255 254 256 257 259 260 263 265 265 266 265 264 264
29 21 5 348 341 324 295 263 248 243 243 234 219 215 212 209 209 207 206 204 202 203 203 209 222 228 225 221 215 210 208 208 210 214 216 220 223 228 231 231 227 224 226 231 235 239 240 239 239 241 244 247 250 251 252 254 257 260 264 272 283 286 276 273 280 282 277 282 290 290 297 289 268 263 262 258 259 260 261 264 265 266 266 266 266
36 28 20 16 7 345 307 257 237 240 242 233 219 212 209 208 208 208 209 203 199 199 199 205 214 220 223 221 216 211 207 207 211 216 218 220 223 229 235 238 236 233 231 232 236 239 242 243 244 245 247 250 254 256 256 257 261 265 274 293 314 320 309 293 292 296 303 304 302 303 308 306 284 281 282 273 268 265 262 262 263 264 265 265 267
38 36 34 34 28 18 351 271 232 233 234 226 219 213 212 213 207 205 210 203 194 192 194 200 207 212 219 220 217 213 210 212 217 222 224 224 225 230 239 243 242 241 238 237 238 240 244 247 249 251 252 253 258 262 261 258 257 258 268 288 304 314 315 304 300 306 335 260 288 301 302 302 291 286 294 294 287 281 272 266 263 264 264 264 266